Time,TemperatureF,DewpointF,PressureIn,WindDirection,WindDirectionDegrees,WindSpeedMPH,WindSpeedGustMPH,Humidity,HourlyPrecipIn,Conditions,Clouds,dailyrainin,SoftwareType,DateUTC
2013-07-17 00:01:00,54.0,50.0,-100.00,SE,140,24.0,34.0,85,-99.99,,,-99.99,,2013-07-17 06:01:00,
2013-07-17 00:11:00,54.0,51.0,-100.00,SE,135,24.0,32.0,89,-99.99,,,-99.99,,2013-07-17 06:11:00,
2013-07-17 00:43:00,53.0,52.0,-100.00,SE,140,20.0,29.0,99,-99.99,,,-99.99,,2013-07-17 06:43:00,
2013-07-17 01:11:00,53.0,53.0,-100.00,SE,140,21.0,27.0,99,-99.99,,,-99.99,,2013-07-17 07:11:00,
2013-07-17 01:42:00,53.0,53.0,-100.00,SE,135,21.0,30.0,99,-99.99,,,-99.99,,2013-07-17 07:42:00,
2013-07-17 02:01:00,53.0,53.0,-100.00,SE,140,18.0,26.0,99,-99.99,,,-99.99,,2013-07-17 08:01:00,
2013-07-17 02:11:00,53.0,53.0,-100.00,SSE,150,14.0,23.0,99,-99.99,,,-99.99,,2013-07-17 08:11:00,
2013-07-17 02:43:00,53.0,53.0,-100.00,SSE,150,12.0,19.0,99,-99.99,,,-99.99,,2013-07-17 08:43:00,
2013-07-17 02:53:00,53.0,53.0,-100.00,SE,145,16.0,24.0,99,-99.99,,,-99.99,,2013-07-17 08:53:00,
2013-07-17 03:02:00,53.0,53.0,-100.00,SE,145,14.0,20.0,99,-99.99,,,-99.99,,2013-07-17 09:02:00,
2013-07-17 03:12:00,53.0,53.0,-100.00,SE,140,17.0,22.0,99,-99.99,,,-99.99,,2013-07-17 09:12:00,
2013-07-17 03:32:00,53.0,53.0,-100.00,SSE,155,11.0,19.0,99,-99.99,,,-99.99,,2013-07-17 09:32:00,
2013-07-17 03:43:00,52.0,52.0,-100.00,SE,145,16.0,21.0,99,-99.99,,,-99.99,,2013-07-17 09:43:00,
2013-07-17 03:52:00,52.0,52.0,-100.00,SSE,160,14.0,19.0,99,-99.99,,,-99.99,,2013-07-17 09:52:00,
2013-07-17 04:11:00,53.0,53.0,-100.00,SSE,150,10.0,15.0,99,-99.99,,,-99.99,,2013-07-17 10:11:00,
2013-07-17 04:43:00,52.0,52.0,-100.00,SE,145,9.0,14.0,99,-99.99,,,-99.99,,2013-07-17 10:43:00,
2013-07-17 05:42:00,51.0,51.0,-100.00,SE,140,11.0,14.0,99,-99.99,,,-99.99,,2013-07-17 11:42:00,
2013-07-17 06:42:00,51.0,51.0,-100.00,SSE,160,9.0,12.0,99,-99.99,,,-99.99,,2013-07-17 12:42:00,
2013-07-17 07:01:00,51.0,51.0,-100.00,SSE,150,7.0,11.0,99,-99.99,,,-99.99,,2013-07-17 13:01:00,
2013-07-17 07:12:00,51.0,51.0,-100.00,SSE,165,7.0,11.0,99,-99.99,,,-99.99,,2013-07-17 13:12:00,
2013-07-17 08:43:00,60.0,49.0,-100.00,SE,135,9.0,12.0,66,-99.99,,,-99.99,,2013-07-17 14:43:00,
2013-07-17 09:42:00,63.0,48.0,-100.00,ESE,115,12.0,16.0,56,-99.99,,,-99.99,,2013-07-17 15:42:00,
2013-07-17 10:02:00,65.0,48.0,-100.00,SE,145,11.0,16.0,53,-99.99,,,-99.99,,2013-07-17 16:02:00,
2013-07-17 10:11:00,65.0,48.0,-100.00,SE,125,11.0,14.0,53,-99.99,,,-99.99,,2013-07-17 16:11:00,
2013-07-17 10:42:00,66.0,47.0,-100.00,SE,130,12.0,16.0,50,-99.99,,,-99.99,,2013-07-17 16:42:00,
2013-07-17 11:43:00,67.0,48.0,-100.00,ESE,120,13.0,17.0,50,-99.99,,,-99.99,,2013-07-17 17:43:00,
2013-07-17 12:43:00,69.0,49.0,-100.00,SE,135,12.0,19.0,47,-99.99,,,-99.99,,2013-07-17 18:43:00,
2013-07-17 13:43:00,71.0,47.0,-100.00,SE,140,12.0,18.0,43,-99.99,,,-99.99,,2013-07-17 19:43:00,
2013-07-17 14:01:00,71.0,48.0,-100.00,ESE,115,13.0,19.0,43,-99.99,,,-99.99,,2013-07-17 20:01:00,
2013-07-17 14:43:00,73.0,48.0,-100.00,SE,135,13.0,20.0,41,-99.99,,,-99.99,,2013-07-17 20:43:00,
2013-07-17 15:42:00,73.0,47.0,-100.00,SE,145,14.0,24.0,40,-99.99,,,-99.99,,2013-07-17 21:42:00,
2013-07-17 16:11:00,74.0,47.0,-100.00,SSE,155,12.0,22.0,39,-99.99,,,-99.99,,2013-07-17 22:11:00,
2013-07-17 16:43:00,73.0,46.0,-100.00,SE,135,16.0,20.0,37,-99.99,,,-99.99,,2013-07-17 22:43:00,
2013-07-17 17:43:00,74.0,45.0,-100.00,SE,130,13.0,19.0,36,-99.99,,,-99.99,,2013-07-17 23:43:00,
2013-07-17 18:43:00,73.0,45.0,-100.00,SE,125,16.0,21.0,36,-99.99,,,-99.99,,2013-07-18 00:43:00,
2013-07-17 19:42:00,72.0,43.0,-100.00,SE,130,12.0,17.0,36,-99.99,,,-99.99,,2013-07-18 01:42:00,
2013-07-17 20:01:00,70.0,43.0,-100.00,SE,140,12.0,17.0,36,-99.99,,,-99.99,,2013-07-18 02:01:00,
2013-07-17 20:42:00,68.0,43.0,-100.00,SE,145,7.0,12.0,40,-99.99,,,-99.99,,2013-07-18 02:42:00,
2013-07-17 21:43:00,66.0,44.0,-100.00,SE,135,9.0,12.0,44,-99.99,,,-99.99,,2013-07-18 03:43:00,
2013-07-17 22:43:00,64.0,42.0,-100.00,SE,140,9.0,12.0,45,-99.99,,,-99.99,,2013-07-18 04:43:00,
2013-07-17 23:42:00,61.0,42.0,-100.00,SSE,150,6.0,9.0,49,-99.99,,,-99.99,,2013-07-18 05:42:00,